Location: Unspecified
(46.8143°N, 0.0000°E)
Time: 10:19:18
(UTC+00:00)

CZ-6A DEB - Visible Passes

Search period start: 04 April 2026 00:00
Search period end: 14 April 2026 00:00
Orbit: 585 x 694 km, 98.6° (Epoch: 27 March)

Date Brightness Start Highest point End Pass type
(mag) Time Alt. Az. Time Alt. Az. Time Alt. Az.
4 Apr ? 20:12:08 11° ENE 20:12:12 11° ENE 20:13:14 10° NE visible
4 Apr ? 21:49:40 36° NNW 21:49:40 36° NNW 21:52:11 10° NNW visible
5 Apr ? 20:35:20 17° NE 20:35:20 17° NE 20:37:42 10° NNE visible
5 Apr ? 22:12:54 30° NW 22:12:54 30° NW 22:15:08 10° NNW visible
6 Apr ? 20:58:31 25° NE 20:58:31 25° NE 21:01:16 10° N visible
6 Apr ? 22:36:04 21° NW 22:36:04 21° NW 22:37:52 10° NNW visible
7 Apr ? 21:21:40 35° NNE 21:21:40 35° NNE 21:24:34 10° N visible
7 Apr ? 22:59:13 14° WNW 22:59:13 14° WNW 23:00:15 10° NW visible
8 Apr ? 21:44:47 42° N 21:44:47 42° N 21:47:38 10° N visible
9 Apr ? 20:30:21 15° ENE 20:30:24 15° ENE 20:32:47 10° NNE visible
9 Apr ? 22:07:53 37° NW 22:07:53 37° NW 22:10:31 10° NNW visible
10 Apr ? 20:53:24 23° ENE 20:53:24 23° ENE 20:56:22 10° NNE visible
10 Apr ? 22:30:56 26° NW 22:30:56 26° NW 22:33:11 10° NNW visible
11 Apr ? 21:16:26 35° NE 21:16:26 35° NE 21:19:36 10° N visible
11 Apr ? 22:53:58 17° WNW 22:53:58 17° WNW 22:55:32 10° NW visible
12 Apr ? 21:39:26 48° NNE 21:39:26 48° NNE 21:42:36 10° N visible
12 Apr ? 23:16:58 11° WNW 23:16:58 11° WNW 23:17:16 10° WNW visible
13 Apr ? 20:24:52 13° ENE 20:25:24 13° ENE 20:27:18 10° NNE visible
13 Apr ? 22:02:24 46° NNW 22:02:24 46° NNW 22:05:25 10° NNW visible
